Weather History for KOOA - May, 2014

Change the Weather History Date:

Wednesday, May 14, 2014

  Actual Average (KOTM) Record (KOTM)
Temperature  
Mean Temperature 48 °F 61 °F  
Max Temperature 56 °F 72 °F 92 °F (1988)
Min Temperature 40 °F 50 °F 37 °F (1966)
Degree Days  
Heating Degree Days 17 6  
Month to date heating degree days 102  
Since 1 July heating degree days 6232  
Cooling Degree Days 0 1  
Month to date cooling degree days 14  
Year to date cooling degree days 25  
Moisture  
Dew Point 38 °F    
Average Humidity 67    
Maximum Humidity 91    
Minimum Humidity 45    
Precipitation  
Precipitation 0.00 in 0.15 in 1.90 in (1945)
Month to date precipitation 2.05  
Year to date precipitation 9.87  
Sea Level Pressure  
Sea Level Pressure 30.20 in    
Wind  
Wind Speed 7 mph (North)    
Max Wind Speed 16 mph    
Max Gust Speed 18 mph    
Visibility 10 miles    
Events      
T = Trace of Precipitation, MM = Missing Value Source: NWS Daily Summary

Daily Weather History Graph

Daily Weather History Graph

Search for Another Location

Airport or City:

Trip Planner

Search our weather history database for the weather conditions in past years. The results will help you decide how hot, cold, wet, or windy it might be!

Date:

Astronomy

May. 14, 2014 Rise Set
Actual Time 5:52 AM CDT 8:20 PM CDT
Civil Twilight 5:21 AM CDT 8:52 PM CDT
Nautical Twilight 4:42 AM CDT 9:31 PM CDT
Astronomical Twilight 3:59 AM CDT 10:14 PM CDT
Moon 8:26 PM CDT (5/14) 5:52 AM CDT (5/14)
Length of Visible Light 15h 30m
Length of Day
14h 28m
Full, 100% of the Moon is Illuminated
May 14
Full
May 14
Full
May 21
Last Quarter
May 28
New
Jun 5
First Quarter

Hourly Weather History & Observations

Time (CDT) Temp. Windchill Dew Point Humidity Pressure Visibility Wind Dir Wind Speed Gust Speed Precip Events Conditions
12:15 AM 43.3 °F 39.9 °F 39.2 °F 85% 30.25 in 10.0 mi NW 5.8 mph - N/A   Clear
12:35 AM 43.7 °F 40.3 °F 39.2 °F 84% 30.25 in 10.0 mi NW 5.8 mph - N/A   Clear
1:15 AM 43.7 °F 39.7 °F 39.2 °F 84% 30.25 in 10.0 mi NNW 6.9 mph - N/A   Clear
1:35 AM 42.3 °F 38.6 °F 38.7 °F 87% 30.24 in 10.0 mi NNW 5.8 mph - N/A   Clear
1:55 AM 42.1 °F 37.7 °F 38.7 °F 88% 30.24 in 10.0 mi NNW 6.9 mph - N/A   Clear
2:15 AM 41.9 °F 37.5 °F 38.3 °F 87% 30.24 in 10.0 mi NNW 6.9 mph - N/A   Clear
2:35 AM 41.9 °F 38.2 °F 38.3 °F 87% 30.24 in 10.0 mi NNW 5.8 mph - N/A   Clear
2:55 AM 41.2 °F 37.3 °F 37.9 °F 88% 30.24 in 10.0 mi NW 5.8 mph - N/A   Clear
3:15 AM 41.4 °F 37.6 °F 37.8 °F 87% 30.24 in 10.0 mi NW 5.8 mph - N/A   Clear
3:35 AM 41.4 °F 36.8 °F 37.8 °F 87% 30.25 in 10.0 mi NW 6.9 mph - N/A   Clear
3:55 AM 41.0 °F 37.1 °F 37.9 °F 89% 30.25 in 10.0 mi NW 5.8 mph - N/A   Clear
4:15 AM 40.5 °F 37.3 °F 37.6 °F 89% 30.25 in 10.0 mi WNW 4.6 mph - N/A   Clear
4:35 AM 40.1 °F 36.1 °F 37.4 °F 90% 30.25 in 10.0 mi NW 5.8 mph - N/A   Clear
4:55 AM 40.5 °F 35.8 °F 37.8 °F 90% 30.25 in 10.0 mi NW 6.9 mph - N/A   Clear
5:15 AM 40.1 °F 36.1 °F 37.4 °F 90% 30.24 in 10.0 mi NW 5.8 mph - N/A   Clear
5:35 AM 40.5 °F 36.5 °F 37.9 °F 91% 30.25 in 10.0 mi NW 5.8 mph - N/A   Clear
5:55 AM 40.6 °F 36.0 °F 38.3 °F 91% 30.25 in 10.0 mi NW 6.9 mph - N/A   Clear
6:15 AM 41.0 °F 37.1 °F 38.7 °F 91% 30.26 in 10.0 mi NNW 5.8 mph - N/A   Clear
6:35 AM 41.9 °F 38.2 °F 39.2 °F 90% 30.26 in 10.0 mi NW 5.8 mph - N/A   Clear
6:55 AM 43.3 °F 39.9 °F 40.5 °F 90% 30.26 in 10.0 mi NNW 5.8 mph - N/A   Clear
7:15 AM 44.4 °F 42.0 °F 40.5 °F 86% 30.26 in 10.0 mi NNW 4.6 mph - N/A   Clear
7:35 AM 45.5 °F 41.8 °F 40.1 °F 81% 30.26 in 10.0 mi North 6.9 mph - N/A   Clear
7:55 AM 45.9 °F 42.3 °F 40.5 °F 81% 30.25 in 10.0 mi North 6.9 mph - N/A   Clear
8:15 AM 46.8 °F - 40.3 °F 78% 30.27 in 10.0 mi North 5.8 mph - N/A   Clear
8:35 AM 48.9 °F - 41.0 °F 74% 30.26 in 10.0 mi North 10.4 mph - N/A   Clear
8:55 AM 50.2 °F - 40.1 °F 68% 30.25 in 10.0 mi North 10.4 mph - N/A   Clear
9:15 AM 51.1 °F - 37.2 °F 59% 30.25 in 10.0 mi North 13.8 mph - N/A   Clear
9:35 AM 51.8 °F - 37.9 °F 59% 30.26 in 10.0 mi North 9.2 mph - N/A   Clear
9:55 AM 52.7 °F - 35.8 °F 53% 30.26 in 10.0 mi North 13.8 mph - N/A   Clear
10:35 AM 53.8 °F - 34.3 °F 48% 30.25 in 10.0 mi North 16.1 mph - N/A   Clear
10:55 AM 55.4 °F - 35.8 °F 48% 30.26 in 10.0 mi NNE 13.8 mph - N/A   Clear
11:15 AM 54.7 °F - 34.9 °F 47% 30.25 in 10.0 mi NE 15.0 mph - N/A   Clear
11:55 AM 55.6 °F - 35.4 °F 47% 30.24 in 10.0 mi NNE 13.8 mph 18.4 mph N/A   Clear
12:15 PM 55.6 °F - 35.2 °F 46% 30.23 in 10.0 mi NNE 12.7 mph 18.4 mph N/A   Clear
12:35 PM 55.8 °F - 35.1 °F 46% 30.22 in 10.0 mi NNE 11.5 mph - N/A   Clear
12:55 PM 55.8 °F - 34.9 °F 45% 30.21 in 10.0 mi NNE 10.4 mph 18.4 mph N/A   Clear
1:15 PM 56.3 °F - 34.9 °F 45% 30.21 in 10.0 mi NE 11.5 mph 16.1 mph N/A   Clear
1:35 PM 56.1 °F - 35.2 °F 45% 30.21 in 10.0 mi North 9.2 mph - N/A   Clear
1:55 PM 55.9 °F - 35.4 °F 46% 30.21 in 10.0 mi North 8.1 mph 11.5 mph N/A   Clear
2:15 PM 55.9 °F - 35.2 °F 46% 30.19 in 10.0 mi NNE 11.5 mph - N/A   Clear
2:35 PM 56.3 °F - 35.6 °F 46% 30.19 in 10.0 mi NNE 12.7 mph - N/A   Clear
3:15 PM 56.3 °F - 35.4 °F 46% 30.18 in 10.0 mi North 12.7 mph - N/A   Clear
3:35 PM 56.3 °F - 35.1 °F 45% 30.18 in 10.0 mi North 13.8 mph 18.4 mph N/A   Clear
3:55 PM 56.5 °F - 36.3 °F 47% 30.16 in 10.0 mi NNE 10.4 mph - N/A   Clear
4:15 PM 56.3 °F - 35.4 °F 46% 30.14 in 10.0 mi NNE 12.7 mph - N/A   Clear
4:35 PM 56.3 °F - 35.8 °F 46% 30.13 in 10.0 mi NNE 10.4 mph - N/A   Clear
4:55 PM 56.3 °F - 36.3 °F 47% 30.12 in 10.0 mi North 12.7 mph - N/A   Clear
5:15 PM 56.3 °F - 36.7 °F 48% 30.12 in 10.0 mi NNE 11.5 mph - N/A   Clear
5:35 PM 55.9 °F - 37.4 °F 50% 30.10 in 10.0 mi NNE 11.5 mph - N/A   Clear
5:55 PM 55.8 °F - 37.4 °F 50% 30.10 in 10.0 mi NNE 11.5 mph - N/A   Clear
6:15 PM 56.7 °F - 37.2 °F 48% 30.10 in 10.0 mi NNE 8.1 mph - N/A   Clear
6:35 PM 55.9 °F - 37.2 °F 49% 30.10 in 10.0 mi NNE 8.1 mph - N/A   Clear
6:55 PM 55.4 °F - 37.8 °F 52% 30.11 in 10.0 mi NE 5.8 mph - N/A   Clear
7:15 PM 55.0 °F - 39.0 °F 55% 30.11 in 10.0 mi NE 3.5 mph - N/A   Clear
7:55 PM 54.1 °F - 39.6 °F 58% 30.12 in 10.0 mi ENE 3.5 mph - N/A   Clear
8:15 PM 52.7 °F - 40.6 °F 64% 30.12 in 10.0 mi Calm Calm - N/A   Clear
8:35 PM 52.9 °F - 40.5 °F 63% 30.11 in 10.0 mi Calm Calm - N/A   Clear
8:55 PM 52.9 °F - 39.2 °F 60% 30.12 in 10.0 mi Calm Calm - N/A   Clear
9:15 PM 52.2 °F - 38.8 °F 60% 30.11 in 10.0 mi Calm Calm - N/A   Clear
9:35 PM 49.8 °F - 43.0 °F 77% 30.11 in 10.0 mi West 3.5 mph - N/A   Clear
9:55 PM 49.5 °F - 43.2 °F 79% 30.11 in 10.0 mi West 4.6 mph - N/A   Clear
10:15 PM 49.5 °F - 43.3 °F 79% 30.11 in 10.0 mi West 3.5 mph - N/A   Clear
10:35 PM 49.3 °F - 42.8 °F 78% 30.11 in 10.0 mi West 3.5 mph - N/A   Clear
11:15 PM 48.4 °F - 42.1 °F 79% 30.10 in 10.0 mi West 4.6 mph - N/A   Clear
11:35 PM 47.3 °F - 41.5 °F 80% 30.10 in 10.0 mi West 5.8 mph - N/A   Clear
11:55 PM 47.3 °F - 41.4 °F 80% 30.10 in 10.0 mi West 5.8 mph - N/A   Clear